User: anonymous   Login
Location: Unspecified
(0.0000°N, 0.0000°E)
Time: 21:47:51
(UTC+00:00)
Language:

PAYLOAD H - Orbit

View from above orbital plane
View from above orbital plane
View from above satellite
View from above satellite

Ground track
Ground track

The orbit data is extracted from the following two-line orbital elements,

1 27847U 03031H   18048.95072876  .00000021  00000-0  29330-4 0  9994
2 27847  98.6845  57.9575 0008776 337.3277  22.7512 14.22096170759347
Epoch (UTC): 17 February 2018 22:49:02
Eccentricity: 0.0008776
inclination: 98.6845°
perigee height: 812 km
apogee height: 824 km
right ascension of ascending node: 57.9575°
argument of perigee: 337.3277°
revolutions per day: 14.22096170
mean anomaly at epoch: 22.7512°
orbit number at epoch: 75934

The dashed part of the orbit path shows where the satellite is in the earth's shadow,  

DLR